Content
SEND FEEDBACK

Daily
Averages
Monthly
Summary
Malaysia

KOTA KINABALU, MALAYSIA


Home > Asia > Malaysia
Elevation: 10 feet     Latitude: 05 55N     Longitude: 116 03E

WEATHER
 
SELECT A DAY
Number of Records: 269,442;   Date Range: 8/9/96 - 7/27/14
 
SHARE

PRINT THIS DATA

[ ← Previous Day ]
WEATHER ALMANAC - MARCH 29, 2013
[ Next Day → ]
[ °C ]   °F
Weather ElementAverageHighLow
Temperature83.6 °F91.4 °F (12:00 pm)77 °F (5:00 am)
Dewpoint76.5 °F80.6 °F (2:00 pm)73.4 °F (12:30 am)
Humidity79.2 %89 % (1:00 am)58 % (11:00 am)
Barometer29.79 in29.86 in (9:00 am)29.74 in (2:00 pm)
Wind Speed5.9 mph9.2 mph (2:00 pm)
Weather ElementAverage
Visibility7.2 mi
Wind DirectionS (181.3 °)

Weather ElementTotal
Precipitation---
Cooling Degree Days19.2 (Base 65)
Growing Degree Days34.2 (Base 50)
Averaged from 55 records on March 29, 2013
WEATHER CONDITIONS BREAKOUT
WIND DIRECTION BREAKOUT
WEATHER BY HOUR - MARCH 29, 2013
[ °C ]   °F
Local TimeTemperatureDewpointHumidityBarometerVisibilityWind DirectionWind SpeedGust SpeedPrecipitationEventsConditions
12:30 AM78.8 °F73.4 °F83 %29.83 in6.2 miESE (110°)6.9 mphMostly Cloudy
1:00 AM78.8 °F75.2 °F89 %29.83 in6.2 miESE (110°)4.6 mphMostly Cloudy
1:30 AM78.8 °F75.2 °F89 %29.80 in6.2 miESE (110°)4.6 mphMostly Cloudy
2:00 AM78.0 °F75.0 °F86 %29.81 in11.0 miEast (100°)5.8 mphScattered Clouds
2:00 AM78.8 °F75.2 °F89 %29.80 in6.2 miEast (100°)5.8 mphMostly Cloudy
2:30 AM78.8 °F75.2 °F89 %29.77 in6.2 miEast (100°)4.6 mphMostly Cloudy
3:00 AM78.8 °F75.2 °F89 %29.77 in6.2 miESE (110°)5.8 mphMostly Cloudy
3:30 AM78.8 °F75.2 °F89 %29.77 in6.2 miEast (100°)5.8 mphMostly Cloudy
4:00 AM78.8 °F75.2 °F89 %29.77 in6.2 miEast (100°)4.6 mphMostly Cloudy
4:30 AM78.8 °F73.4 °F83 %29.77 in6.2 miESE (110°)3.5 mphMostly Cloudy
5:00 AM78.0 °F74.0 °F84 %29.79 in11.0 miESE (110°)5.8 mphScattered Clouds
5:00 AM77.0 °F73.4 °F89 %29.77 in6.2 miESE (110°)5.8 mphMostly Cloudy
5:30 AM78.8 °F75.2 °F89 %29.77 in6.2 miESE (110°)4.6 mphMostly Cloudy
6:00 AM77.0 °F73.4 °F89 %29.80 in6.2 miESE (110°)4.6 mphMostly Cloudy
6:30 AM77.0 °F73.4 °F89 %29.80 in6.2 miESE (120°)4.6 mphMostly Cloudy
7:00 AM78.8 °F73.4 °F83 %29.80 in6.2 miESE (110°)6.9 mphMostly Cloudy
7:30 AM80.6 °F73.4 °F79 %29.83 in6.2 miESE (110°)5.8 mphMostly Cloudy
8:00 AM82.0 °F75.0 °F73 %29.83 in17.0 miESE (110°)5.8 mphScattered Clouds
8:00 AM82.4 °F75.2 °F79 %29.83 in6.2 miESE (110°)5.8 mphMostly Cloudy
8:30 AM86.0 °F75.2 °F70 %29.83 in6.2 miEast (90°)4.6 mphMostly Cloudy
9:00 AM87.8 °F77.0 °F70 %29.86 in6.2 miNorth (350°)2.3 mphMostly Cloudy
9:30 AM87.8 °F75.2 °F66 %29.86 in6.2 miNorth (10°)4.6 mphMostly Cloudy
10:00 AM89.6 °F77.0 °F66 %29.86 in6.2 miNorth (350°)5.8 mphMostly Cloudy
10:30 AM89.6 °F77.0 °F66 %29.86 in6.2 miNorth (350°)5.8 mphMostly Cloudy
11:00 AM90.0 °F77.0 °F58 %29.85 in17.0 miNNW (340°)4.6 mphScattered Clouds
11:00 AM89.6 °F77.0 °F66 %29.83 in6.2 miNNW (340°)4.6 mphMostly Cloudy
11:30 AM89.6 °F78.8 °F70 %29.83 in6.2 miNNW (330°)5.8 mphMostly Cloudy
12:00 PM91.4 °F78.8 °F66 %29.80 in6.2 miNNW (330°)5.8 mphMostly Cloudy
12:30 PM89.6 °F78.8 °F70 %29.80 in6.2 miNW (320°)8.1 mphMostly Cloudy
1:00 PM91.4 °F78.8 °F66 %29.77 in6.2 miNNW (330°)8.1 mphMostly Cloudy
1:30 PM91.4 °F78.8 °F66 %29.77 in6.2 miNNW (330°)6.9 mphMostly Cloudy
2:00 PM91.0 °F80.0 °F63 %29.76 in17.0 miNW (320°)9.2 mphPartly Cloudy
2:00 PM91.4 °F80.6 °F71 %29.74 in6.2 miNW (320°)9.2 mphMostly Cloudy
2:30 PM89.6 °F80.6 °F75 %29.74 in6.2 miNW (320°)9.2 mphMostly Cloudy
3:00 PM89.6 °F80.6 °F75 %29.74 in6.2 miNW (320°)8.1 mphMostly Cloudy
3:30 PM89.6 °F78.8 °F70 %29.74 in6.2 miNNW (330°)9.2 mphMostly Cloudy
4:00 PM89.6 °F78.8 °F70 %29.74 in6.2 miNNW (340°)6.9 mphMostly Cloudy
4:30 PM87.8 °F77.0 °F70 %29.74 in6.2 miNNW (340°)6.9 mphMostly Cloudy
5:00 PM87.0 °F79.0 °F71 %29.75 in11.0 miNorth (350°)5.8 mphPartly Cloudy
5:00 PM87.8 °F78.8 °F75 %29.74 in6.2 miNorth (350°)5.8 mphMostly Cloudy
5:30 PM86.0 °F78.8 °F79 %29.74 in6.2 miNorth (10°)5.8 mphThunderstormThunderstorm
6:00 PM86.0 °F78.8 °F79 %29.74 in6.2 miNorth (10°)4.6 mphThunderstormThunderstorm
6:30 PM82.4 °F78.8 °F89 %29.77 in6.2 miESE (110°)9.2 mphRain-ThunderstormLight Thunderstorms and Rain
7:00 PM80.6 °F77.0 °F89 %29.77 in6.2 miESE (110°)8.1 mphRainLight Rain
7:30 PM80.6 °F77.0 °F89 %29.77 in6.2 miESE (120°)5.8 mphRainLight Rain
8:00 PM81.0 °F76.0 °F81 %29.80 in11.0 miEast (100°)6.9 mphRainLight Rain
8:00 PM80.6 °F77.0 °F89 %29.80 in6.2 miEast (100°)6.9 mphRainLight Rain
8:30 PM80.6 °F75.2 °F84 %29.80 in6.2 miESE (120°)5.8 mphMostly Cloudy
9:00 PM80.6 °F75.2 °F84 %29.80 in6.2 miEast (100°)5.8 mphMostly Cloudy
9:30 PM80.6 °F75.2 °F84 %29.80 in6.2 miESE (110°)5.8 mphMostly Cloudy
10:00 PM80.6 °F77.0 °F89 %29.80 in6.2 miESE (110°)4.6 mphMostly Cloudy
10:30 PM80.6 °F77.0 °F89 %29.83 in6.2 miESE (120°)3.5 mphMostly Cloudy
11:00 PM80.0 °F76.0 °F86 %29.83 in11.0 miESE (120°)3.5 mphPartly Cloudy
11:00 PM80.6 °F77.0 °F89 %29.83 in6.2 miESE (120°)3.5 mphMostly Cloudy
11:30 PM78.8 °F75.2 °F89 %29.83 in6.2 miEast (100°)3.5 mphMostly Cloudy
Hourly data recorded from WBKK, located miles away from Kota Kinabalu, Malaysia







STORIES FROM OUR PARTNERS